Home > Weather > Güstrow > Past weeks

Flag for Germany Past Weather in Güstrow, Mecklenburg-Western Pomerania, Germany — Yesterday and Last 2 Weeks

Now
64 °F

Fog.


Feels Like: 64 °F
Forecast: 53 / 76 °F
Wind: 5 mph from Northwest

Location: Laage

Current Time: Jul 26, 2016 at 2:51:27 AM

Latest Report: Jul 26, 2016 at 2:20 AM


Visibility: 5 mi

Pressure: 30.04 "Hg

Humidity: 94%

Dew Point: 63 °F

Location of GüstrowLocation

Past Weather in Güstrow — Graph

°F

Güstrow Temperature Yesterday

Maximum temperature yesterday: 84 °F (at 3:20 PM)
Minimum temperature yesterday: 59 °F (at 5:20 AM)
Average temperature yesterday: 70 °F

High & Low Weather Summary for the Past Weeks

 TemperatureHumidityPressure
High84 °F (Jul 21, 5:20 PM)100% (Jul 14, 3:20 AM)30.18 "Hg (Jul 14, 3:20 AM)
Low52 °F (Jul 14, 3:20 AM)30% (Jul 22, 1:20 PM)29.65 "Hg (Jul 11, 2:20 AM)
Average66 °F73%30.01 "Hg
* Reported Jul 11 1:20 AM — Jul 26 1:20 AM, Güstrow, Weather by CustomWeather, © 2016

Note: Actual official high and low records may vary slightly from our data, if they occured in-between our weather recording intervals... More about our weather records

Advertising

Güstrow Weather History for the Previous 24 Hours

Scroll right to see more
 ConditionsComfort  
Time TempWeatherWind HumidityBarometerVisibility
1:20 AM
Tue, Jul 26
64 °FFog.3 mph94%30.04 "Hg6 mi
12:20 AM64 °FFog.1 mph100%30.04 "Hg6 mi
11:20 PM
Mon, Jul 25
64 °FFog.3 mph100%30.04 "HgN/A
10:20 PM66 °FFog.2 mph94%30.04 "HgN/A
9:20 PM68 °FPartly sunny.3 mph88%30.04 "HgN/A
8:20 PM68 °FPartly sunny.5 mph88%30.04 "HgN/A
7:20 PM68 °FThundershowers. Broken clouds.7 mph88%30.04 "HgN/A
7:04 PM68 °FThunderstorms. Partly sunny.2 mph88%30.04 "HgN/A
6:20 PM68 °FThunderstorms. Partly sunny.9 mph83%30.01 "Hg4 mi
5:45 PM81 °FThunderstorms. Partly sunny.3 mph51%30.01 "HgN/A
5:20 PM82 °FScattered showers. Broken clouds.6 mph48%30.01 "HgN/A
4:20 PM84 °FPartly sunny.3 mph43%30.01 "HgN/A
3:20 PM84 °FPartly sunny.5 mph43%30.01 "HgN/A
2:20 PM82 °FPartly sunny.7 mph45%30.01 "HgN/A
1:20 PM82 °FScattered clouds.6 mph42%30.01 "HgN/A
12:20 PM81 °FScattered clouds.7 mph48%30.01 "HgN/A
11:20 AM81 °FPassing clouds.2 mph48%30.04 "HgN/A
10:20 AM79 °FPassing clouds.5 mph58%30.04 "HgN/A
9:20 AM73 °FPassing clouds.3 mph69%30.04 "HgN/A
8:20 AM68 °FPassing clouds.3 mph83%30.04 "HgN/A
7:20 AM64 °FFog.5 mph88%30.04 "Hg3 mi
6:20 AM61 °FFog.3 mph94%30.04 "Hg4 mi
5:53 AM59 °FFog.5 mph94%30.04 "Hg3 mi
5:20 AM59 °FPassing clouds.6 mph100%30.07 "Hg4 mi
4:20 AM61 °FCool.6 mph94%30.07 "HgN/A
3:20 AM61 °FPassing clouds.5 mph94%30.07 "HgN/A
2:20 AM63 °FPassing clouds.5 mph88%30.07 "HgN/A
Weather by CustomWeather, © 2016

See weather overviewHow to use our weather pages